Simultaneous Nadir Overpasses (SNOs) Predictions

Prediction of SNOs between METOP-B and TERRA Satellite Orbit:

Table of predicted SNOs for the next 14.0 days since TLE Epoch: 6/17/2023
Index Date (METOP-B) Time (METOP-B) Lat,Lon (METOP-B) SZA (METOP-B ) Date (TERRA) Time (TERRA) Lat,Lon (TERRA) SZA (TERRA ) Distance(km) Time Diff (sec)
1 06/18/2023 04:39:54 -80.80, -37.96 121.16 06/18/2023 04:40:33 -80.81, -37.84 121.13 2.28 39
2 06/18/2023 05:30:32 80.85, 130.23 58.96 06/18/2023 05:29:53 80.85, 130.36 58.96 2.25 39
3 06/20/2023 20:00:52 80.78, -88.58 58.74 06/20/2023 20:02:00 80.79, -88.45 58.78 2.53 68
4 06/20/2023 20:51:30 -80.84, 79.86 121.11 06/20/2023 20:51:21 -80.84, 79.86 121.12 0.09 9
5 06/23/2023 12:12:27 80.84, 29.51 58.87 06/23/2023 12:12:47 80.83, 29.37 58.86 2.57 20
6 06/23/2023 13:03:07 -80.86,-162.72 121.07 06/23/2023 13:02:09 -80.86,-162.62 121.08 1.90 58
7 06/26/2023 03:33:26 -80.81, -21.28 121.16 06/26/2023 03:34:15 -80.80, -21.36 121.15 1.60 49
8 06/26/2023 04:24:03 80.87, 147.20 59.00 06/26/2023 04:23:34 80.87, 147.02 58.97 3.23 29



Historial Predications of SNOs between METOP-B and TERRA
